Location: Hickory_CSC
(35.7330°N, 81.3330°W)
Time: 04:47:25
(UTC-05:00)

Cosmos 1356 Rocket - Visible Passes

Search period start: 20 January 2017 00:00
Search period end: 30 January 2017 00:00
Orbit: 543 x 601 km, 81.2° (Epoch: 19 January)

Date Brightness Start Highest point End Pass type
(mag) Time Alt. Az. Time Alt. Az. Time Alt. Az.
20 Jan 5.3 05:47:37 10° NNE 05:51:17 30° ENE 05:54:58 10° SE visible
20 Jan 5.1 18:10:08 10° ESE 18:12:13 14° E 18:14:19 10° ENE visible
20 Jan 5.0 19:45:20 10° SW 19:48:55 32° WNW 19:51:30 16° NNW visible
21 Jan 4.7 05:50:04 10° N 05:53:59 41° ENE 05:57:56 10° SSE visible
21 Jan 4.7 18:11:57 10° SE 18:14:47 19° E 18:17:37 10° NE visible
21 Jan 5.6 19:48:24 10° SW 19:51:38 23° WNW 19:54:52 10° NNW visible
22 Jan 4.0 05:52:35 10° N 05:56:40 57° E 06:00:48 10° SSE visible
22 Jan 4.3 18:14:03 10° SSE 18:17:21 26° E 18:20:41 10° NE visible
22 Jan 6.1 19:51:38 10° WSW 19:54:22 18° WNW 19:57:05 10° NNW visible
23 Jan 3.4 05:55:11 10° N 05:59:20 81° E 06:03:32 10° S visible
23 Jan 3.9 18:16:18 10° SSE 18:19:57 35° E 18:23:36 10° NNE visible
23 Jan 6.4 19:55:13 10° W 19:57:06 13° WNW 19:59:00 10° NW visible
24 Jan 3.3 05:58:40 16° NNW 06:01:59 73° W 06:06:11 10° S visible
24 Jan 3.5 18:18:42 10° S 18:22:33 49° E 18:26:25 10° NNE visible
25 Jan 6.7 04:26:52 10° ENE 04:27:18 10° ENE 04:27:44 10° ENE visible
25 Jan 3.5 06:02:26 25° NNW 06:04:37 52° W 06:08:43 10° S visible
25 Jan 3.2 18:21:13 10° S 18:25:10 71° E 18:29:10 10° NNE visible
26 Jan 6.4 04:30:03 14° ENE 04:30:04 14° ENE 04:32:17 10° ESE visible
26 Jan 3.9 06:06:18 33° WNW 06:07:14 38° W 06:11:09 10° SSW visible
26 Jan 3.4 18:23:50 10° S 18:27:49 82° W 18:31:49 10° N visible
27 Jan 6.2 04:33:59 17° E 04:33:59 17° E 04:35:49 10° ESE visible
27 Jan 4.4 06:10:15 27° WSW 06:10:15 27° WSW 06:13:27 10° SSW visible
27 Jan 4.0 18:26:33 10° SSW 18:30:28 57° W 18:34:26 10° N visible
28 Jan 6.2 04:37:58 16° ESE 04:37:58 16° ESE 04:39:04 10° SE visible
28 Jan 5.2 06:14:14 16° WSW 06:14:14 16° WSW 06:15:36 10° SW visible
28 Jan 4.7 18:29:23 10° SSW 18:33:09 40° WNW 18:36:57 10° N visible
29 Jan 6.4 04:41:58 11° SE 04:41:58 11° SE 04:42:08 10° SE visible
29 Jan 5.4 18:32:20 10° SW 18:35:51 29° WNW 18:39:23 10° NNW visible
